,,Stat5,,Stat1,,Stat2,,Stat3,,Stat4,,Wind1,,Wind1,
time,status,PA1M_AVG,status,PR1M_SUM,status,RH1M_AVG,status,SR1M_AVG,status,TA1M_AVG,status,W1dAve1m,status,W1sAve1m,
2001-02-19, 00:00:00,VALID,919.759,VALID,0,VALID,97.3248,VALID,-0.0169808,VALID,19.6391,VALID,87,VALID,0.770508,
2001-02-19, 00:01:00,VALID,919.741,VALID,0,VALID,97.2154,VALID,0,VALID,19.6421,VALID,94,VALID,0.639186,
2001-02-19, 00:02:00,VALID,919.725,VALID,0,VALID,97.1849,VALID,-0.0169808,VALID,19.6324,VALID,40,VALID,0.393914,
2001-02-19, 00:03:00,VALID,919.728,VALID,0,VALID,97.3248,VALID,0,VALID,19.6485,VALID,27,VALID,0.109158,
2001-02-19, 00:04:00,VALID,919.719,VALID,0,VALID,97.4583,VALID,-0.0339617,VALID,19.6615,VALID,345,VALID,0.113598,
2001-02-19, 00:05:00,VALID,919.694,VALID,0,VALID,97.4901,VALID,0.0169808,VALID,19.6739,VALID,298,VALID,0.108428,
2001-02-19, 00:06:00,VALID,919.65,VALID,0,VALID,97.4545,VALID,0,VALID,19.6838,VALID,70,VALID,0.533654,
2001-02-19, 00:07:00,VALID,919.633,VALID,0,VALID,97.56,VALID,0.0169808,VALID,19.7129,VALID,97,VALID,0.649554,
2001-02-19, 00:08:00,VALID,919.615,VALID,0,VALID,97.5308,VALID,-0.0169808,VALID,19.729,VALID,96,VALID,0.06875,
2001-02-19, 00:09:00,VALID,919.618,VALID,0,VALID,97.5015,VALID,0,VALID,19.7191,VALID,96,VALID,0.141447,
2001-02-19, 00:10:00,VALID,919.63,VALID,0,VALID,97.5143,VALID,0,VALID,19.7189,VALID,312,VALID,0.369792,
2001-02-19, 00:11:00,VALID,919.643,VALID,0,VALID,97.5257,VALID,0,VALID,19.7196,VALID,309,VALID,0.234581,
2001-02-19, 00:12:00,VALID,919.632,VALID,0,VALID,97.644,VALID,0,VALID,19.7099,VALID,309,VALID,0,
2001-02-19, 00:13:00,VALID,919.617,VALID,0,VALID,97.7419,VALID,0,VALID,19.7131,VALID,309,VALID,0,
2001-02-19, 00:14:00,VALID,919.588,VALID,0,VALID,97.8258,VALID,-0.0169808,VALID,19.7333,VALID,307,VALID,0,
2001-02-19, 00:15:00,VALID,919.548,VALID,0,VALID,97.8729,VALID,0,VALID,19.7258,VALID,305,VALID,0.180304,
2001-02-19, 00:16:00,VALID,919.525,VALID,0,VALID,97.8309,VALID,0,VALID,19.7034,VALID,305,VALID,0.192773,
2001-02-19, 00:17:00,VALID,919.492,VALID,0,VALID,97.8919,VALID,0.0169808,VALID,19.703,VALID,305,VALID,0,
2001-02-19, 00:18:00,VALID,919.454,VALID,0,VALID,97.9352,VALID,0,VALID,19.7067,VALID,305,VALID,0,
2001-02-19, 00:19:00,VALID,919.395,VALID,0,VALID,97.9174,VALID,0,VALID,19.6903,VALID,305,VALID,0.0733964,
2001-02-19, 00:20:00,VALID,919.348,VALID,0,VALID,97.9339,VALID,-0.0169808,VALID,19.6838,VALID,103,VALID,0.632422,
2001-02-19, 00:21:00,VALID,919.297,VALID,0,VALID,97.9097,VALID,0,VALID,19.6774,VALID,121,VALID,0.618832,
2001-02-19, 00:22:00,VALID,919.272,VALID,0,VALID,97.9288,VALID,0,VALID,19.6575,VALID,122,VALID,0.252804,
2001-02-19, 00:23:00,VALID,919.281,VALID,0,VALID,97.9555,VALID,0,VALID,19.6776,VALID,122,VALID,0.0160362,
2001-02-19, 00:24:00,VALID,919.28,VALID,0,VALID,97.9733,VALID,-0.0339617,VALID,19.6741,VALID,122,VALID,0.152734,
2001-02-19, 00:25:00,VALID,919.263,VALID,0,VALID,97.9085,VALID,0,VALID,19.6515,VALID,122,VALID,0.14412,
2001-02-19, 00:26:00,VALID,919.252,VALID,0,VALID,97.8665,VALID,-0.0169808,VALID,19.6483,VALID,139,VALID,0.140214,
2001-02-19, 00:27:00,VALID,919.238,VALID,0,VALID,97.7317,VALID,-0.0169808,VALID,19.616,VALID,156,VALID,0.32278,
2001-02-19, 00:28:00,VALID,919.225,VALID,0,VALID,97.6732,VALID,0,VALID,19.6003,VALID,139,VALID,0.53125,
2001-02-19, 00:29:00,VALID,919.218,VALID,0,VALID,97.6491,VALID,0,VALID,19.5872,VALID,135,VALID,0.315789,
2001-02-19, 00:30:00,VALID,919.221,VALID,0,VALID,97.7482,VALID,0,VALID,19.6065,VALID,135,VALID,0.0230369,
2001-02-19, 00:31:00,VALID,919.229,VALID,0,VALID,97.6885,VALID,-0.0169808,VALID,19.5842,VALID,135,VALID,0,
2001-02-19, 00:32:00,VALID,919.229,VALID,0,VALID,97.5779,VALID,-0.0169808,VALID,19.5613,VALID,135,VALID,0,
2001-02-19, 00:33:00,VALID,919.206,VALID,0,VALID,97.588,VALID,0,VALID,19.5551,VALID,135,VALID,0,
2001-02-19, 00:34:00,VALID,919.194,VALID,0,VALID,97.6071,VALID,0,VALID,19.5549,VALID,120,VALID,0.0964227,
2001-02-19, 00:35:00,VALID,919.197,VALID,0,VALID,97.41,VALID,0,VALID,19.5226,VALID,54,VALID,0.585115,
2001-02-19, 00:36:00,VALID,919.197,VALID,0,VALID,97.3286,VALID,0,VALID,19.5196,VALID,62,VALID,0.533203,
2001-02-19, 00:37:00,VALID,919.183,VALID,0,VALID,97.3172,VALID,0,VALID,19.5389,VALID,95,VALID,0.137952,
2001-02-19, 00:38:00,VALID,919.168,VALID,0,VALID,97.2307,VALID,0,VALID,19.5355,VALID,106,VALID,0.0348558,
2001-02-19, 00:39:00,VALID,919.15,VALID,0,VALID,97.1188,VALID,0,VALID,19.5258,VALID,104,VALID,0.152549,
2001-02-19, 00:40:00,VALID,919.131,VALID,0,VALID,97.0781,VALID,0,VALID,19.5258,VALID,100,VALID,0.0896484,
2001-02-19, 00:41:00,VALID,919.123,VALID,0,VALID,97.1493,VALID,0,VALID,19.5293,VALID,88,VALID,0.318668,
2001-02-19, 00:42:00,VALID,919.097,VALID,0,VALID,97.0946,VALID,-0.0339617,VALID,19.5226,VALID,90,VALID,0.334293,
2001-02-19, 00:43:00,VALID,919.082,VALID,0,VALID,97.1608,VALID,0,VALID,19.5096,VALID,92,VALID,0.760485,
2001-02-19, 00:44:00,VALID,919.044,VALID,0,VALID,97.2994,VALID,0,VALID,19.4999,VALID,87,VALID,0.998355,
2001-02-19, 00:45:00,VALID,919.014,VALID,0,VALID,97.4075,VALID,0,VALID,19.4937,VALID,87,VALID,0.931949,
2001-02-19, 00:46:00,VALID,918.996,VALID,0,VALID,97.4316,VALID,-0.0169808,VALID,19.4679,VALID,91,VALID,0.811298,
2001-02-19, 00:47:00,VALID,918.957,VALID,0,VALID,97.4939,VALID,0,VALID,19.442,VALID,91,VALID,0.578536,
2001-02-19, 00:48:00,VALID,918.953,VALID,0,VALID,97.5359,VALID,0,VALID,19.416,VALID,79,VALID,0.728711,
2001-02-19, 00:49:00,VALID,918.95,VALID,0,VALID,97.6147,VALID,-0.0169808,VALID,19.3871,VALID,74,VALID,0.518092,
2001-02-19, 00:50:00,VALID,918.948,VALID,0,VALID,97.6452,VALID,-0.0169808,VALID,19.361,VALID,79,VALID,0.541324,
2001-02-19, 00:51:00,VALID,918.937,VALID,0,VALID,97.6732,VALID,0,VALID,19.3481,VALID,89,VALID,0.493627,
2001-02-19, 00:52:00,VALID,918.909,VALID,0,VALID,97.6516,VALID,-0.0169808,VALID,19.329,VALID,89,VALID,0.725195,
2001-02-19, 00:53:00,VALID,918.886,VALID,0,VALID,97.6605,VALID,-0.0339617,VALID,19.2964,VALID,80,VALID,0.563528,
2001-02-19, 00:54:00,VALID,918.876,VALID,0,VALID,97.6936,VALID,0,VALID,19.2932,VALID,84,VALID,0.124199,
2001-02-19, 00:55:00,VALID,918.874,VALID,0,VALID,97.7088,VALID,0,VALID,19.2868,VALID,30,VALID,0.210526,
2001-02-19, 00:56:00,VALID,918.884,VALID,0,VALID,97.6936,VALID,0,VALID,19.2939,VALID,359,VALID,0,
2001-02-19, 00:57:00,VALID,918.876,VALID,0,VALID,97.6847,VALID,0.0169808,VALID,19.2704,VALID,302,VALID,0.0450247,
2001-02-19, 00:58:00,VALID,918.873,VALID,0,VALID,97.6923,VALID,0,VALID,19.2773,VALID,270,VALID,0,
2001-02-19, 00:59:00,VALID,918.839,VALID,0,VALID,97.7203,VALID,0,VALID,19.2641,VALID,246,VALID,0,
2001-02-19, 01:00:00,VALID,918.818,VALID,0,VALID,97.7927,VALID,-0.0339617,VALID,19.2778,VALID,246,VALID,0,
2001-02-19, 01:01:00,VALID,918.785,VALID,0,VALID,97.7953,VALID,0,VALID,19.2579,VALID,244,VALID,0,
2001-02-19, 01:02:00,VALID,918.747,VALID,0,VALID,97.8449,VALID,0,VALID,19.2549,VALID,243,VALID,0,
2001-02-19, 01:03:00,VALID,918.726,VALID,0,VALID,97.9046,VALID,0.0169808,VALID,19.2512,VALID,176,VALID,0.198191,
2001-02-19, 01:04:00,VALID,918.713,VALID,0,VALID,97.9492,VALID,0,VALID,19.2515,VALID,109,VALID,0.730859,
2001-02-19, 01:05:00,VALID,918.72,VALID,0,VALID,97.9479,VALID,-0.0169808,VALID,19.2445,VALID,109,VALID,0.231497,
2001-02-19, 01:06:00,VALID,918.735,VALID,0,VALID,97.9898,VALID,0,VALID,19.2452,VALID,109,VALID,0,
2001-02-19, 01:07:00,VALID,918.749,VALID,0,VALID,98.0242,VALID,-0.0169808,VALID,19.2552,VALID,112,VALID,0,
2001-02-19, 01:08:00,VALID,918.738,VALID,0,VALID,97.9848,VALID,0,VALID,19.245,VALID,127,VALID,0,
2001-02-19, 01:09:00,VALID,918.708,VALID,0,VALID,97.9466,VALID,0,VALID,19.2157,VALID,127,VALID,0,
2001-02-19, 01:10:00,VALID,918.691,VALID,0,VALID,97.9225,VALID,0,VALID,19.2132,VALID,127,VALID,0,
2001-02-19, 01:11:00,VALID,918.689,VALID,0,VALID,97.9174,VALID,0,VALID,19.1896,VALID,127,VALID,0,
2001-02-19, 01:12:00,VALID,918.683,VALID,0,VALID,97.9364,VALID,-0.0169808,VALID,19.1931,VALID,127,VALID,0,
2001-02-19, 01:13:00,VALID,918.678,VALID,0,VALID,97.9377,VALID,0,VALID,19.1973,VALID,127,VALID,0,
2001-02-19, 01:14:00,VALID,918.697,VALID,0,VALID,97.9059,VALID,0,VALID,19.1998,VALID,127,VALID,0,
2001-02-19, 01:15:00,VALID,918.692,VALID,0,VALID,97.9046,VALID,-0.0339617,VALID,19.2003,VALID,127,VALID,0,
2001-02-19, 01:16:00,VALID,918.71,VALID,0,VALID,97.9364,VALID,-0.0169808,VALID,19.2097,VALID,127,VALID,0,
2001-02-19, 01:17:00,VALID,918.702,VALID,0,VALID,97.9479,VALID,0,VALID,19.2224,VALID,127,VALID,0,
2001-02-19, 01:18:00,VALID,918.689,VALID,0,VALID,97.9555,VALID,-0.0169808,VALID,19.2321,VALID,127,VALID,0,
2001-02-19, 01:19:00,VALID,918.673,VALID,0,VALID,97.9631,VALID,0,VALID,19.2557,VALID,127,VALID,0,
2001-02-19, 01:20:00,VALID,918.654,VALID,0,VALID,97.9339,VALID,-0.0509425,VALID,19.2418,VALID,127,VALID,0,
2001-02-19, 01:21:00,VALID,918.645,VALID,0,VALID,97.8983,VALID,-0.0169808,VALID,19.245,VALID,127,VALID,0,
2001-02-19, 01:22:00,VALID,918.645,VALID,0,VALID,97.8423,VALID,0.0169808,VALID,19.2619,VALID,127,VALID,0,
2001-02-19, 01:23:00,VALID,918.638,VALID,0,VALID,97.7368,VALID,0.0169808,VALID,19.2256,VALID,127,VALID,0,
2001-02-19, 01:24:00,VALID,918.631,VALID,0,VALID,97.6605,VALID,-0.0169808,VALID,19.2289,VALID,127,VALID,0,
2001-02-19, 01:25:00,VALID,918.616,VALID,0,VALID,97.5867,VALID,-0.0339617,VALID,19.203,VALID,163,VALID,0.000822368,
2001-02-19, 01:26:00,VALID,918.599,VALID,0,VALID,97.5842,VALID,-0.0169808,VALID,19.1869,VALID,262,VALID,0.313101,
2001-02-19, 01:27:00,VALID,918.605,VALID,0,VALID,97.6033,VALID,-0.0169808,VALID,19.1973,VALID,267,VALID,0.312706,
2001-02-19, 01:28:00,VALID,918.601,VALID,0,VALID,97.6122,VALID,-0.0169808,VALID,19.1802,VALID,265,VALID,0.0867188,
2001-02-19, 01:29:00,VALID,918.57,VALID,0,VALID,97.5054,VALID,0,VALID,19.1739,VALID,255,VALID,0.127056,
2001-02-19, 01:30:00,VALID,918.565,VALID,0,VALID,97.4507,VALID,-0.0169808,VALID,19.1844,VALID,254,VALID,0.387747,
2001-02-19, 01:31:00,VALID,918.557,VALID,0,VALID,97.3146,VALID,-0.0339617,VALID,19.171,VALID,256,VALID,0.262952,
2001-02-19, 01:32:00,VALID,918.542,VALID,0,VALID,97.0972,VALID,0,VALID,19.1774,VALID,256,VALID,0.0369141,
2001-02-19, 01:33:00,VALID,918.524,VALID,0,VALID,96.9064,VALID,0.0169808,VALID,19.1906,VALID,256,VALID,0,
2001-02-19, 01:34:00,VALID,918.507,VALID,0,VALID,96.7195,VALID,-0.0169808,VALID,19.1834,VALID,256,VALID,0,
2001-02-19, 01:35:00,VALID,918.472,VALID,0,VALID,96.6178,VALID,0,VALID,19.1871,VALID,256,VALID,0,
2001-02-19, 01:36:00,VALID,918.461,VALID,0,VALID,96.5135,VALID,-0.0169808,VALID,19.1608,VALID,256,VALID,0,
2001-02-19, 01:37:00,VALID,918.444,VALID,0,VALID,96.469,VALID,-0.0339617,VALID,19.1521,VALID,256,VALID,0,
2001-02-19, 01:38:00,VALID,918.429,VALID,0,VALID,96.4995,VALID,-0.0339617,VALID,19.1357,VALID,256,VALID,0,
2001-02-19, 01:39:00,VALID,918.405,VALID,0,VALID,96.4817,VALID,-0.0169808,VALID,19.1066,VALID,258,VALID,0,
2001-02-19, 01:40:00,VALID,918.395,VALID,0,VALID,96.4347,VALID,-0.0339617,VALID,19.0812,VALID,259,VALID,0,
2001-02-19, 01:41:00,VALID,918.385,VALID,0,VALID,96.3139,VALID,-0.0169808,VALID,19.0512,VALID,259,VALID,0,
2001-02-19, 01:42:00,VALID,918.395,VALID,0,VALID,96.3609,VALID,-0.0339617,VALID,19.0492,VALID,259,VALID,0,
2001-02-19, 01:43:00,VALID,918.387,VALID,0,VALID,96.3304,VALID,-0.0509425,VALID,19.0358,VALID,274,VALID,0,
2001-02-19, 01:44:00,VALID,918.378,VALID,0,VALID,96.1956,VALID,-0.0169808,VALID,19.0323,VALID,275,VALID,0,
2001-02-19, 01:45:00,VALID,918.353,VALID,0,VALID,96.0761,VALID,-0.0679233,VALID,19.0296,VALID,275,VALID,0,
2001-02-19, 01:46:00,VALID,918.333,VALID,0,VALID,95.9438,VALID,-0.0509425,VALID,19.0003,VALID,275,VALID,0,
2001-02-19, 01:47:00,VALID,918.33,VALID,0,VALID,95.9464,VALID,-0.0509425,VALID,18.9814,VALID,278,VALID,0.119243,
2001-02-19, 01:48:00,VALID,918.324,VALID,0,VALID,95.9362,VALID,-0.0169808,VALID,18.9585,VALID,291,VALID,0.203125,
2001-02-19, 01:49:00,VALID,918.313,VALID,0,VALID,95.9566,VALID,-0.0339617,VALID,18.926,VALID,96,VALID,0.315584,
2001-02-19, 01:50:00,VALID,918.298,VALID,0,VALID,95.7417,VALID,-0.0339617,VALID,18.8775,VALID,90,VALID,0.294271,
2001-02-19, 01:51:00,VALID,918.284,VALID,0,VALID,95.8917,VALID,-0.0169808,VALID,18.8291,VALID,85,VALID,0.850329,
2001-02-19, 01:52:00,VALID,918.256,VALID,0,VALID,96.1448,VALID,-0.0169808,VALID,18.7963,VALID,91,VALID,0.685547,
2001-02-19, 01:53:00,VALID,918.233,VALID,0,VALID,96.1575,VALID,-0.0509425,VALID,18.7575,VALID,107,VALID,0.523232,
2001-02-19, 01:54:00,VALID,918.22,VALID,0,VALID,96.277,VALID,-0.0169808,VALID,18.7354,VALID,115,VALID,0.207854,
2001-02-19, 01:55:00,VALID,918.226,VALID,0,VALID,96.4448,VALID,-0.0169808,VALID,18.7128,VALID,115,VALID,0.130757,
2001-02-19, 01:56:00,VALID,918.228,VALID,0,VALID,96.6216,VALID,0,VALID,18.6999,VALID,115,VALID,0.391992,
2001-02-19, 01:57:00,VALID,918.243,VALID,0,VALID,96.6343,VALID,0,VALID,18.6867,VALID,115,VALID,0.230263,
2001-02-19, 01:58:00,VALID,918.271,VALID,0,VALID,96.6852,VALID,-0.0339617,VALID,18.6775,VALID,190,VALID,0.0861378,
2001-02-19, 01:59:00,VALID,918.242,VALID,0,VALID,96.675,VALID,-0.0339617,VALID,18.6775,VALID,131,VALID,0.434416,
2001-02-19, 02:00:00,VALID,918.221,VALID,0,VALID,96.5224,VALID,-0.0339617,VALID,18.6125,VALID,101,VALID,0.64043,
2001-02-19, 02:01:00,VALID,918.191,VALID,0,VALID,96.5784,VALID,0,VALID,18.5871,VALID,98,VALID,0.577508,
2001-02-19, 02:02:00,VALID,918.171,VALID,0,VALID,96.7984,VALID,-0.0339617,VALID,18.5548,VALID,96,VALID,0.684005,
2001-02-19, 02:03:00,VALID,918.166,VALID,0,VALID,96.9802,VALID,-0.0679233,VALID,18.5386,VALID,93,VALID,0.20662,
2001-02-19, 02:04:00,VALID,918.156,VALID,0,VALID,97.4227,VALID,-0.0169808,VALID,18.5518,VALID,176,VALID,0.183789,
2001-02-19, 02:05:00,VALID,918.142,VALID,0,VALID,97.6122,VALID,0,VALID,18.591,VALID,202,VALID,0.00102796,
2001-02-19, 02:06:00,VALID,918.136,VALID,0,VALID,97.6173,VALID,0,VALID,18.5677,VALID,167,VALID,0.255409,
2001-02-19, 02:07:00,VALID,918.121,VALID,0,VALID,97.4876,VALID,-0.0169808,VALID,18.5553,VALID,109,VALID,0.466488,
2001-02-19, 02:08:00,VALID,918.113,VALID,0,VALID,97.2816,VALID,-0.0679233,VALID,18.4969,VALID,120,VALID,0.588086,
2001-02-19, 02:09:00,VALID,918.094,VALID,0,VALID,97.3947,VALID,-0.0339617,VALID,18.4807,VALID,104,VALID,0.761924,
2001-02-19, 02:10:00,VALID,918.074,VALID,0,VALID,97.7025,VALID,-0.0339617,VALID,18.516,VALID,100,VALID,0.980469,
2001-02-19, 02:11:00,VALID,918.043,VALID,0,VALID,98.0191,VALID,-0.0339617,VALID,18.5841,VALID,86,VALID,0.36287,
2001-02-19, 02:12:00,VALID,918.019,VALID,0,VALID,98.0242,VALID,-0.0169808,VALID,18.6007,VALID,131,VALID,0.300195,
2001-02-19, 02:13:00,VALID,918.008,VALID,0,VALID,98.0687,VALID,-0.0169808,VALID,18.6099,VALID,129,VALID,0.288651,
2001-02-19, 02:14:00,VALID,918.019,VALID,0,VALID,98.0038,VALID,-0.0169808,VALID,18.6074,VALID,124,VALID,0.326122,
2001-02-19, 02:15:00,VALID,918.015,VALID,0,VALID,97.9848,VALID,-0.0509425,VALID,18.5906,VALID,123,VALID,0,
2001-02-19, 02:16:00,VALID,918.012,VALID,0,VALID,98.056,VALID,-0.0679233,VALID,18.6032,VALID,123,VALID,0,
2001-02-19, 02:17:00,VALID,918.004,VALID,0,VALID,98.1056,VALID,-0.0339617,VALID,18.6328,VALID,123,VALID,0,
2001-02-19, 02:18:00,VALID,917.995,VALID,0,VALID,98.0585,VALID,-0.0679233,VALID,18.6332,VALID,123,VALID,0,
2001-02-19, 02:19:00,VALID,917.992,VALID,0,VALID,98.0051,VALID,-0.0339617,VALID,18.6102,VALID,186,VALID,0,
2001-02-19, 02:20:00,VALID,917.986,VALID,0,VALID,98.0458,VALID,-0.0509425,VALID,18.6169,VALID,206,VALID,0,
2001-02-19, 02:21:00,VALID,917.978,VALID,0,VALID,97.9822,VALID,0,VALID,18.5873,VALID,204,VALID,0,
2001-02-19, 02:22:00,VALID,917.941,VALID,0,VALID,97.883,VALID,-0.0169808,VALID,18.5746,VALID,203,VALID,0,
2001-02-19, 02:23:00,VALID,917.903,VALID,0,VALID,97.8423,VALID,-0.0169808,VALID,18.561,VALID,194,VALID,0,
2001-02-19, 02:24:00,VALID,917.887,VALID,0,VALID,97.9797,VALID,0.0169808,VALID,18.5869,VALID,141,VALID,0,
2001-02-19, 02:25:00,VALID,917.904,VALID,0,VALID,98.0992,VALID,0.0169808,VALID,18.6321,VALID,141,VALID,0,
2001-02-19, 02:26:00,VALID,917.909,VALID,0,VALID,98.1475,VALID,0.0339617,VALID,18.6383,VALID,141,VALID,0,
2001-02-19, 02:27:00,VALID,917.929,VALID,0,VALID,98.1272,VALID,0.0169808,VALID,18.6547,VALID,141,VALID,0,
2001-02-19, 02:28:00,VALID,917.936,VALID,0,VALID,98.0865,VALID,0.0339617,VALID,18.6646,VALID,141,VALID,0,
2001-02-19, 02:29:00,VALID,917.921,VALID,0,VALID,98.1157,VALID,0.0169808,VALID,18.6708,VALID,141,VALID,0,
2001-02-19, 02:30:00,VALID,917.907,VALID,0,VALID,98.1577,VALID,0,VALID,18.6934,VALID,141,VALID,0,
2001-02-19, 02:31:00,VALID,917.892,VALID,0,VALID,98.1488,VALID,0,VALID,18.7068,VALID,141,VALID,0,
2001-02-19, 02:32:00,VALID,917.889,VALID,0,VALID,98.2149,VALID,0,VALID,18.7354,VALID,140,VALID,0,
2001-02-19, 02:33:00,VALID,917.859,VALID,0,VALID,98.3001,VALID,0.0169808,VALID,18.7675,VALID,140,VALID,0,
2001-02-19, 02:34:00,VALID,917.841,VALID,0,VALID,98.4069,VALID,0.0169808,VALID,18.8291,VALID,136,VALID,0,
2001-02-19, 02:35:00,VALID,917.865,VALID,0,VALID,98.4362,VALID,0.0169808,VALID,18.8639,VALID,136,VALID,0,
2001-02-19, 02:36:00,VALID,917.873,VALID,0,VALID,98.4578,VALID,0.0169808,VALID,18.89,VALID,135,VALID,0,
2001-02-19, 02:37:00,VALID,917.87,VALID,0,VALID,98.5163,VALID,0.0339617,VALID,18.9424,VALID,119,VALID,0,
2001-02-19, 02:38:00,VALID,917.849,VALID,0,VALID,98.5341,VALID,0.0339617,VALID,18.9712,VALID,120,VALID,0,
2001-02-19, 02:39:00,VALID,917.831,VALID,0,VALID,98.557,VALID,0.0679233,VALID,18.9933,VALID,121,VALID,0,
2001-02-19, 02:40:00,VALID,917.845,VALID,0,VALID,98.4921,VALID,0.0679233,VALID,18.9767,VALID,121,VALID,0,
2001-02-19, 02:41:00,VALID,917.83,VALID,0,VALID,98.4934,VALID,0.0339617,VALID,18.9995,VALID,122,VALID,0,
2001-02-19, 02:42:00,VALID,917.795,VALID,0,VALID,98.4629,VALID,0.0509425,VALID,19.0058,VALID,114,VALID,0,
2001-02-19, 02:43:00,VALID,917.754,VALID,0,VALID,98.4972,VALID,0.0509425,VALID,19.0323,VALID,119,VALID,0.105469,
2001-02-19, 02:44:00,VALID,917.294,VALID,0,VALID,98.4731,VALID,0.0339617,VALID,19.045,VALID,119,VALID,0.563672,
2001-02-19, 02:45:00,VALID,917.7,VALID,0,VALID,98.4769,VALID,0.0169808,VALID,19.0644,VALID,118,VALID,0.143914,
2001-02-19, 02:46:00,VALID,917.719,VALID,0,VALID,98.4489,VALID,0.0849042,VALID,19.0669,VALID,135,VALID,0,
2001-02-19, 02:47:00,VALID,917.726,VALID,0,VALID,98.4413,VALID,0.0849042,VALID,19.0867,VALID,186,VALID,0,
2001-02-19, 02:48:00,VALID,917.739,VALID,0,VALID,98.4146,VALID,0.0339617,VALID,19.08,VALID,220,VALID,0,
2001-02-19, 02:49:00,VALID,917.739,VALID,0,VALID,98.4057,VALID,0.101885,VALID,19.0897,VALID,216,VALID,0,
2001-02-19, 02:50:00,VALID,917.735,VALID,0,VALID,98.379,VALID,0.0679233,VALID,19.0932,VALID,176,VALID,0.265008,
2001-02-19, 02:51:00,VALID,917.728,VALID,0,VALID,98.2861,VALID,0.0849042,VALID,19.0738,VALID,142,VALID,0.434622,
2001-02-19, 02:52:00,VALID,917.722,VALID,0,VALID,98.2353,VALID,0.0339617,VALID,19.0544,VALID,138,VALID,0.174609,
2001-02-19, 02:53:00,VALID,917.757,VALID,0,VALID,98.1691,VALID,0.0509425,VALID,19.0284,VALID,138,VALID,0.00102796,
2001-02-19, 02:54:00,VALID,917.794,VALID,0,VALID,98.0839,VALID,0.0509425,VALID,19.0095,VALID,138,VALID,0.0208333,
2001-02-19, 02:55:00,VALID,917.805,VALID,0,VALID,98.0102,VALID,0.0339617,VALID,18.9965,VALID,136,VALID,0.384046,
2001-02-19, 02:56:00,VALID,917.796,VALID,0,VALID,97.9581,VALID,0.0849042,VALID,18.9511,VALID,124,VALID,0.133594,
2001-02-19, 02:57:00,VALID,917.789,VALID,0,VALID,97.9453,VALID,0.0339617,VALID,18.9315,VALID,124,VALID,0.020148,
2001-02-19, 02:58:00,VALID,917.771,VALID,0,VALID,97.8703,VALID,0.0169808,VALID,18.8865,VALID,124,VALID,0.42866,
2001-02-19, 02:59:00,VALID,917.753,VALID,0,VALID,97.9085,VALID,0.0679233,VALID,18.8674,VALID,125,VALID,0.259252,
2001-02-19, 03:00:00,VALID,917.745,VALID,0,VALID,97.9504,VALID,0.0339617,VALID,18.8475,VALID,127,VALID,0.05625,
2001-02-19, 03:01:00,VALID,917.739,VALID,0,VALID,97.9835,VALID,0.0509425,VALID,18.8217,VALID,129,VALID,0.0696957,
2001-02-19, 03:02:00,VALID,917.718,VALID,0,VALID,97.9492,VALID,0.0509425,VALID,18.8092,VALID,129,VALID,0.031851,
2001-02-19, 03:03:00,VALID,917.689,VALID,0,VALID,97.9186,VALID,0.0339617,VALID,18.7873,VALID,135,VALID,0.0415296,
2001-02-19, 03:04:00,VALID,917.689,VALID,0,VALID,97.9275,VALID,0,VALID,18.7379,VALID,181,VALID,0.00957031,
2001-02-19, 03:05:00,VALID,917.7,VALID,0,VALID,97.9835,VALID,0.0169808,VALID,18.7386,VALID,181,VALID,0.291324,
2001-02-19, 03:06:00,VALID,917.705,VALID,0,VALID,98.0509,VALID,0.0679233,VALID,18.7183,VALID,190,VALID,0.240132,
2001-02-19, 03:07:00,VALID,917.694,VALID,0,VALID,98.1717,VALID,0.0509425,VALID,18.7287,VALID,180,VALID,0.601563,
2001-02-19, 03:08:00,VALID,917.67,VALID,0,VALID,98.2213,VALID,-0.0509425,VALID,18.726,VALID,209,VALID,0.232031,
2001-02-19, 03:09:00,VALID,917.657,VALID,0,VALID,98.234,VALID,-0.0509425,VALID,18.7267,VALID,259,VALID,0.357319,
2001-02-19, 03:10:00,VALID,917.664,VALID,0,VALID,98.2696,VALID,-0.0509425,VALID,18.7297,VALID,250,VALID,0.373998,
2001-02-19, 03:11:00,VALID,917.675,VALID,0,VALID,98.3141,VALID,-0.0849042,VALID,18.7431,VALID,240,VALID,0.392475,
2001-02-19, 03:12:00,VALID,917.681,VALID,0,VALID,98.3154,VALID,-0.0849042,VALID,18.7368,VALID,201,VALID,0.163281,
2001-02-19, 03:13:00,VALID,917.69,VALID,0,VALID,98.2849,VALID,-0.0509425,VALID,18.7234,VALID,184,VALID,0.0879934,
2001-02-19, 03:14:00,VALID,917.7,VALID,0,VALID,98.2149,VALID,-0.0849042,VALID,18.684,VALID,136,VALID,0.209704,
2001-02-19, 03:15:00,VALID,917.721,VALID,0,VALID,98.1348,VALID,-0.0849042,VALID,18.6593,VALID,175,VALID,0.351563,
2001-02-19, 03:16:00,VALID,917.739,VALID,0,VALID,98.1501,VALID,-0.0679233,VALID,18.6298,VALID,219,VALID,0.305273,
2001-02-19, 03:17:00,VALID,917.74,VALID,0,VALID,98.1666,VALID,-0.101885,VALID,18.6337,VALID,187,VALID,0.129112,
2001-02-19, 03:18:00,VALID,917.706,VALID,0,VALID,98.1806,VALID,-0.0679233,VALID,18.6106,VALID,150,VALID,0.174079,
2001-02-19, 03:19:00,VALID,917.703,VALID,0,VALID,98.2098,VALID,-0.0849042,VALID,18.6141,VALID,136,VALID,0.391242,
2001-02-19, 03:20:00,VALID,917.707,VALID,0,VALID,98.276,VALID,-0.101885,VALID,18.5949,VALID,143,VALID,0.851953,
2001-02-19, 03:21:00,VALID,917.697,VALID,0,VALID,98.3815,VALID,-0.101885,VALID,18.624,VALID,211,VALID,0.293586,
2001-02-19, 03:22:00,VALID,917.722,VALID,0,VALID,98.4031,VALID,-0.0679233,VALID,18.6134,VALID,223,VALID,0.288035,
2001-02-19, 03:23:00,VALID,917.722,VALID,0,VALID,98.4286,VALID,-0.0509425,VALID,18.6429,VALID,208,VALID,0.254112,
2001-02-19, 03:24:00,VALID,917.709,VALID,0,VALID,98.4616,VALID,-0.0169808,VALID,18.6623,VALID,105,VALID,0.364844,
2001-02-19, 03:25:00,VALID,917.685,VALID,0,VALID,98.2772,VALID,-0.101885,VALID,18.6042,VALID,90,VALID,0.482319,
2001-02-19, 03:26:00,VALID,917.683,VALID,0,VALID,98.3408,VALID,-0.0339617,VALID,18.588,VALID,100,VALID,0.67462,
2001-02-19, 03:27:00,VALID,917.679,VALID,0,VALID,98.2989,VALID,-0.0679233,VALID,18.5786,VALID,86,VALID,0.355469,
2001-02-19, 03:28:00,VALID,917.69,VALID,0,VALID,98.2861,VALID,-0.0509425,VALID,18.5656,VALID,129,VALID,0.0136719,
2001-02-19, 03:29:00,VALID,917.673,VALID,0,VALID,98.3548,VALID,-0.0679233,VALID,18.5654,VALID,167,VALID,0.305099,
2001-02-19, 03:30:00,VALID,917.679,VALID,0,VALID,98.3904,VALID,-0.0679233,VALID,18.5749,VALID,70,VALID,0.334498,
2001-02-19, 03:31:00,VALID,917.696,VALID,0,VALID,98.3942,VALID,-0.0339617,VALID,18.5878,VALID,25,VALID,0,
2001-02-19, 03:32:00,VALID,917.692,VALID,0,VALID,98.4196,VALID,-0.0339617,VALID,18.5781,VALID,272,VALID,0.145703,
2001-02-19, 03:33:00,VALID,917.694,VALID,0,VALID,98.4133,VALID,-0.0169808,VALID,18.5779,VALID,101,VALID,0.701069,
2001-02-19, 03:34:00,VALID,917.712,VALID,0,VALID,98.2315,VALID,-0.0509425,VALID,18.5234,VALID,130,VALID,0.134014,
2001-02-19, 03:35:00,VALID,917.725,VALID,0,VALID,98.2543,VALID,-0.0169808,VALID,18.5001,VALID,130,VALID,0.00102796,
2001-02-19, 03:36:00,VALID,917.723,VALID,0,VALID,98.3446,VALID,-0.0679233,VALID,18.5103,VALID,188,VALID,0.00585938,
2001-02-19, 03:37:00,VALID,917.71,VALID,0,VALID,98.4527,VALID,-0.0509425,VALID,18.5398,VALID,167,VALID,0.256168,